DMSP 5D-2 F11 DEB, 29078

Orbit data source: Space-Track

DMSP 5D-2 F11 DEB, 29078 is space debris in SSO originally from a launch on Thu, 28 Nov 1991 UTC launched from the Air Force Western Test Range (AFWTR). Debris objects in space refer to the collection of defunct objects orbiting the Earth. Examples of debris include non-operational satellites, rocket bodies, and fragments generated from explosions, collisions, or faulty payload assembly.

Loading next visibility...
Identifier
29078, 1991-082BZ
Orbit
SSO
Country
Flag of USUS
Related business
Manufacturer
Unknown
Mission
Spacecraft
Bus & Motor
Unknown
Mass
Unknown
Launch date (UTC)
1991-11-28 (34 years ago)
Launch vehicle
Unknown
Launch site
Air Force Western Test Range (AFWTR)
Object type
Payload
Rocket body
Debris
Shape & HBR
Unknown shape, 0.1 m
Radar Cross Section
Small (<0.1 m²)

Expand to show TLE details & history
Last TLE update: 5 hours ago

TLE from 5 hours ago
0 DMSP 5D-2 F11 DEB
1 29078U 91082BZ  26132.19364594  .00002994  00000-0  81277-3 0  9993
2 29078  98.6719 223.1741 0017640 100.4815 259.8366 14.48259518615609
Epoch: 2026-05-12T04:38Z
TLE epoch observation values (Epoch: 2026-05-12T04:38:51.009Z)
Latitude
0.00001°
Longitude
-76.50997°
Altitude
736.528 km
Speed
7.486 km/s
True Right ascension
14h 52m 41s
True Declination
0° 00' 00"
Sunlit
Object was in full shadow at epoch
Visualization orbit readout
Latitude
Unknown
Longitude
Unknown
Altitude
Unknown
Speed
Unknown
Apparent Right ascension
Unknown
Apparent Declination
Unknown
Sunlit
N/A
Visualization observer readout
Local Sidereal Time
17:31:10
Azimuth
Unknown
Elevation
Unknown
Doppler factor
Unknown
Orbital elements
Apogee altitude
740.994 km
Perigee altitude
715.922 km
Semi-major axis
7,106.595 km
Eccentricity
0.00176
Inclination
98.6719°
RAAN
223.1741°
Arg. of periapsis
100.4815°
True anomaly
259.63771°
Mean anomaly
259.8366°
Eccentric anomaly
259.73715°
Mean motion
3.62285 °/min
Orbital period
99.37 mins
BSTAR
0.00081277
Loading maneuver chart data...
Computing Atmospheric mass density...

Documentation

Showing up to 5 results
|